Change the Weather History Date:

Sunday, October 14, 2012

  Actual Average Record
Temperature  
Mean Temperature 84 °F -  
Max Temperature 89 °F 87 °F - ()
Min Temperature 80 °F 80 °F - ()
Cooling Degree Days 20    
Growing Degree Days 34 (Base 50)    
Moisture  
Dew Point 77 °F    
Average Humidity 77    
Maximum Humidity 89    
Minimum Humidity 60    
Precipitation  
Precipitation 0.00 in - - ()
Sea Level Pressure  
Sea Level Pressure 29.81 in    
Wind  
Wind Speed 7 mph ()    
Max Wind Speed 13 mph    
Max Gust Speed -    
Visibility 6.2 miles    
Events      
T = Trace of Precipitation, MM = Missing Value Source: Averaged Metar Reports

Daily Weather History Graph

Daily Weather History Graph

Search for Another Location

Airport or City:

Trip Planner

Search our weather history database for the weather conditions in past years. The results will help you decide how hot, cold, wet, or windy it might be!

Date:

Astronomy

Oct. 14, 2012 Rise Set
Actual Time 6:22 AM AST 6:14 PM AST
Civil Twilight 6:01 AM AST 6:36 PM AST
Nautical Twilight 5:36 AM AST 7:00 PM AST
Astronomical Twilight 5:12 AM AST 7:25 PM AST
Moon 5:21 AM AST (10/14) 5:34 PM AST (10/14)
Length of Visible Light 12h 34m
Length of Day
11h 52m
Waning Crescent, 1% of the Moon is Illuminated
Oct 14
Waning Crescent
Oct 15
New
Oct 21
First Quarter
Oct 29
Full
Nov 6
Last Quarter

Hourly Weather History & Observations

Time (AST) Temp. Heat Index Dew Point Humidity Pressure Visibility Wind Dir Wind Speed Gust Speed Precip Events Conditions
12:00 AM 82.4 °F 90.9 °F 77.0 °F 84% 29.83 in - North - - N/A   Unknown
1:00 AM 82.4 °F 90.9 °F 77.0 °F 84% 29.83 in - North - - N/A   Unknown
2:00 AM 80.6 °F 87.1 °F 77.0 °F 89% 29.80 in - North - - N/A   Unknown
3:00 AM 80.6 °F 87.1 °F 77.0 °F 89% 29.80 in - North - - N/A   Unknown
4:00 AM 82.4 °F 90.9 °F 77.0 °F 84% 29.80 in - North - - N/A   Unknown
5:00 AM 80 °F - 76 °F 83%  in - ESE 11.5 mph - -   Clear
5:00 AM 80.6 °F 87.1 °F 77.0 °F 89% 29.80 in - North - - N/A   Unknown
6:00 AM 80.6 °F 87.1 °F 77.0 °F 89% 29.80 in - North - - N/A   Unknown
8:00 AM 82.4 °F 92.4 °F 78.8 °F 89% 29.86 in - ESE 12.7 mph - N/A   Unknown
9:00 AM 84.2 °F 94.1 °F 77.0 °F 79% 29.86 in 6.2 mi SW 4.6 mph - N/A   Partly Cloudy
10:00 AM 87.8 °F 99.7 °F 77.0 °F 70% 29.86 in 6.2 mi SW 6.9 mph - N/A   Partly Cloudy
11:00 AM 88 °F - 78 °F 65% 29.90 in 28 mi SSW 6.9 mph - -   Partly Cloudy
11:00 AM 87.8 °F 99.7 °F 77.0 °F 70% 29.89 in 6.2 mi SSW 6.9 mph - N/A   Scattered Clouds
12:00 PM 87.8 °F 99.7 °F 77.0 °F 70% 29.86 in 6.2 mi SW 6.9 mph - N/A   Scattered Clouds
1:00 PM 87.8 °F 102.5 °F 78.8 °F 75% 29.83 in 6.2 mi WSW 8.1 mph - N/A   Scattered Clouds
2:00 PM 89 °F - 77 °F 60% 29.80 in 28 mi SSW 5.8 mph - -   Partly Cloudy
2:00 PM 89.6 °F 102.2 °F 77.0 °F 66% 29.77 in 6.2 mi SSW 5.8 mph - N/A   Scattered Clouds
3:00 PM 87.8 °F 99.7 °F 77.0 °F 70% 29.77 in 6.2 mi West 9.2 mph - N/A   Scattered Clouds
4:00 PM 87.8 °F 102.5 °F 78.8 °F 75% 29.74 in 6.2 mi West 5.8 mph - N/A   Partly Cloudy
5:00 PM 88 °F - 76 °F 61% 29.77 in 28 mi West 4.6 mph - -   Partly Cloudy
5:00 PM 87.8 °F 99.7 °F 77.0 °F 70% 29.74 in 6.2 mi West 4.6 mph - N/A   Partly Cloudy
6:00 PM 86.0 °F 96.9 °F 77.0 °F 74% 29.77 in - North - - N/A   Unknown
7:00 PM 84.2 °F 92.3 °F 75.2 °F 74% 29.77 in 6.2 mi Variable 2.3 mph - N/A   Partly Cloudy
8:00 PM 84 °F - 76 °F 71% 29.81 in 28 mi ESE 11.5 mph - -   Scattered Clouds
9:00 PM 82.4 °F 90.9 °F 77.0 °F 84% 29.83 in - North - - N/A   Unknown
11:00 PM - - - %  in - Calm Calm - -